FW7582 Weather Reports


time (UTC)temp
F
wind
direction
speed
knots
gust
knots
rain 1hr
in
rain 24hr
in
rain mn
in
humidity
%
barometer
mb
20260505052550 62 342 0.0 0.0 0.00 0.00 0.00 78 1014.4
20260505052048 62 350 0.0 0.9 0.00 0.00 0.00 78 1014.2
20260505051545 62 323 0.0 0.0 0.00 0.00 0.00 79 1014.0
20260505051043 62 343 0.0 0.0 0.00 0.00 0.00 77 1014.3
20260505050541 63 354 0.0 0.0 0.00 0.00 0.00 78 1014.1
20260505041508 64 349 0.0 0.0 0.00 0.00 0.00 77 1013.3
20260505041006 64 23 0.0 0.0 0.00 0.00 0.00 77 1013.2
20260505040503 64 337 0.0 0.0 0.00 0.00 0.00 76 1013.4
20260505040000 65 338 0.0 0.0 0.00 0.00 0.00 74 1013.2
20260505035455 65 339 0.0 0.0 0.00 0.00 0.00 72 1013.0
20260505034953 66 345 0.0 0.9 0.00 0.00 0.00 71 1012.7
20260505034449 66 346 0.0 0.0 0.00 0.00 0.00 70 1012.9
20260505033947 66 338 0.0 0.9 0.00 0.00 0.00 70 1012.7
20260505033443 66 346 0.0 0.0 0.00 0.00 0.00 68 1012.8
20260505032942 66 323 0.0 0.0 0.00 0.00 0.00 68 1012.6
20260505032439 67 311 0.9 0.9 0.00 0.00 0.00 69 1012.6
20260505031935 67 345 0.0 0.0 0.00 0.00 0.00 68 1012.5
20260505031432 67 330 0.0 0.0 0.00 0.00 0.00 67 1012.5
20260505030929 67 298 0.0 0.0 0.00 0.00 0.00 65 1012.6
20260505030424 68 347 0.0 0.9 0.00 0.00 0.00 63 1012.4
20260505025920 68 321 0.0 0.9 0.00 0.00 0.00 61 1012.6
20260505025418 69 331 0.0 0.0 0.00 0.00 0.00 61 1012.4
20260505024917 69 335 0.0 0.0 0.00 0.00 0.00 57 1012.3
20260505024414 69 342 0.0 0.0 0.00 0.00 0.00 58 1012.6
20260505023911 70 344 0.0 0.0 0.00 0.00 0.00 55 1012.2
20260505023408 71 314 0.0 0.0 0.00 0.00 0.00 53 1012.3
20260505022905 71 320 0.0 0.9 0.00 0.00 0.00 54 1012.5
20260505022402 73 321 0.0 1.7 0.00 0.00 0.00 50 1012.4
20260505021859 73 8 0.0 0.0 0.00 0.00 0.00 50 1012.5
20260505021355 73 340 0.0 1.7 0.00 0.00 0.00 47 1012.2
20260505020851 74 343 0.0 0.0 0.00 0.00 0.00 45 1012.2
20260505020347 74 5 0.0 0.0 0.00 0.00 0.00 48 1012.3
20260505015844 75 10 0.0 0.9 0.00 0.00 0.00 50 1012.4
20260505015341 75 298 0.9 0.9 0.00 0.00 0.00 45 1012.3
20260505014839 76 355 0.0 0.0 0.00 0.00 0.00 42 1012.4
20260505014335 76 328 0.0 0.0 0.00 0.00 0.00 42 1012.6
20260505013832 77 4 0.0 0.0 0.00 0.00 0.00 43 1012.5
20260505013329 77 19 0.0 1.7 0.00 0.00 0.00 41 1012.4
20260505012828 77 23 0.0 0.0 0.00 0.00 0.00 39 1012.5
20260505012325 77 328 0.0 0.0 0.00 0.00 0.00 37 1012.4
20260505011820 78 3 0.0 0.0 0.00 0.00 0.00 41 1012.6
20260505011318 78 339 0.0 0.0 0.00 0.00 0.00 38 1012.7
20260505010814 78 4 0.0 0.0 0.00 0.00 0.00 38 1012.5
20260505010310 78 315 0.0 0.0 0.00 0.00 0.00 36 1012.6
20260505005806 78 1 0.0 0.9 0.00 0.00 0.00 37 1012.7
20260505005304 78 340 0.0 0.9 0.00 0.00 0.00 39 1012.6
20260505004801 78 336 0.0 0.9 0.00 0.00 0.00 38 1012.5
20260505004256 78 347 0.0 0.9 0.00 0.00 0.00 36 1012.4
20260505003754 78 359 0.0 1.7 0.00 0.00 0.00 38 1012.6
20260505003252 78 111 1.7 2.6 0.00 0.00 0.00 35 1012.4
20260505002748 79 6 0.0 0.9 0.00 0.00 0.00 38 1012.6
20260505002245 79 278 0.0 0.9 0.00 0.00 0.00 40 1012.6
20260505001743 79 118 0.9 0.9 0.00 0.00 0.00 36 1012.6
20260505001240 79 22 0.9 2.6 0.00 0.00 0.00 37 1012.4
20260505000736 79 97 0.0 1.7 0.00 0.00 0.00 39 1012.4
20260505000235 80 275 0.0 1.7 0.00 0.00 0.00 33 1012.8
20260504235731 80 352 0.0 0.9 0.00 0.00 0.00 37 1012.6
20260504235227 80 54 0.0 0.9 0.00 0.00 0.00 36 1012.8
20260504234725 80 296 0.0 0.9 0.00 0.00 0.00 35 1012.8
20260504234222 81 181 0.9 1.7 0.00 0.00 0.00 35 1012.7
20260504233718 82 326 0.0 0.9 0.00 0.00 0.00 36 1012.8
20260504233214 82 294 0.9 1.7 0.00 0.00 0.00 37 1012.7
20260504232711 81 309 0.9 1.7 0.00 0.00 0.00 35 1012.9
20260504232208 82 293 0.9 1.7 0.00 0.00 0.00 36 1012.6
20260504231704 81 346 0.0 0.9 0.00 0.00 0.00 35 1012.8
20260504231201 81 71 1.7 2.6 0.00 0.00 0.00 35 1012.6
20260504230657 82 324 0.9 0.9 0.00 0.00 0.00 36 1012.8
20260504230156 83 356 0.9 0.9 0.00 0.00 0.00 35 1012.7
20260504225654 82 346 0.0 0.0 0.00 0.00 0.00 37 1012.9
20260504225149 82 254 1.7 1.7 0.00 0.00 0.00 33 1013.0
20260504224647 81 221 0.9 2.6 0.00 0.00 0.00 37 1013.0
20260504224143 81 340 0.0 1.7 0.00 0.00 0.00 38 1013.1
20260504223641 82 285 0.0 2.6 0.00 0.00 0.00 35 1013.0
20260504223136 83 289 1.7 2.6 0.00 0.00 0.00 32 1013.4
20260504222634 84 269 0.0 0.9 0.00 0.00 0.00 37 1013.2
20260504222130 83 275 0.0 1.7 0.00 0.00 0.00 36 1013.2
20260504221628 82 285 0.9 2.6 0.00 0.00 0.00 37 1013.3
20260504221125 84 212 0.9 1.7 0.00 0.00 0.00 31 1013.5
20260504220621 85 320 1.7 2.6 0.00 0.00 0.00 31 1013.7
20260504220119 84 288 0.9 0.9 0.00 0.00 0.00 31 1013.7
20260504215615 82 325 0.0 0.9 0.00 0.00 0.00 35 1013.4
20260504215113 84 11 0.0 2.6 0.00 0.00 0.00 33 1013.4
20260504214608 84 161 0.9 1.7 0.00 0.00 0.00 32 1013.7
20260504214105 82 341 0.0 2.6 0.00 0.00 0.00 43 1013.4
20260504213601 84 317 0.0 0.9 0.00 0.00 0.00 38 1013.4
20260504213058 84 208 0.9 2.6 0.00 0.00 0.00 37 1013.3
20260504212554 84 142 0.9 1.7 0.00 0.00 0.00 35 1013.4
20260504212052 84 331 0.0 1.7 0.00 0.00 0.00 36 1013.2
20260504211549 84 325 0.0 2.6 0.00 0.00 0.00 35 1013.5
20260504211045 83 320 0.9 1.7 0.00 0.00 0.00 37 1013.4
20260504210542 83 322 0.0 3.5 0.00 0.00 0.00 40 1013.3
20260504210039 85 308 0.0 0.9 0.00 0.00 0.00 41 1013.4
20260504205537 84 309 0.9 0.9 0.00 0.00 0.00 37 1013.8
20260504205035 82 273 0.0 0.9 0.00 0.00 0.00 43 1013.8
20260504204532 83 293 0.0 0.9 0.00 0.00 0.00 45 1013.7
20260504204031 82 357 0.0 0.0 0.00 0.00 0.00 40 1013.9
20260504203529 82 194 0.9 1.7 0.00 0.00 0.00 36 1013.9
20260504203026 82 333 0.0 0.9 0.00 0.00 0.00 41 1013.7
20260504202521 82 294 0.9 0.9 0.00 0.00 0.00 38 1013.8
20260504202019 82 314 0.0 0.9 0.00 0.00 0.00 45 1013.5
20260504201515 82 353 0.0 0.9 0.00 0.00 0.00 38 1013.8
20260504201013 81 19 0.0 0.9 0.00 0.00 0.00 37 1013.7
20260504200510 80 320 0.0 1.7 0.00 0.00 0.00 45 1013.7
20260504200006 79 302 0.0 0.9 0.00 0.00 0.00 41 1013.7
20260504195502 79 347 0.0 0.9 0.00 0.00 0.00 42 1013.9
20260504194959 80 229 0.0 1.7 0.00 0.00 0.00 43 1013.8
20260504194455 80 42 0.0 0.9 0.00 0.00 0.00 40 1013.8
20260504193951 80 301 0.0 0.0 0.00 0.00 0.00 38 1014.0
20260504193449 79 348 0.0 0.9 0.00 0.00 0.00 39 1013.9
20260504192947 79 56 0.0 0.0 0.00 0.00 0.00 40 1014.0
20260504192444 80 170 0.0 0.9 0.00 0.00 0.00 36 1014.0
20260504191943 79 335 0.0 0.9 0.00 0.00 0.00 48 1014.1
20260504191441 79 313 0.0 0.0 0.00 0.00 0.00 45 1014.3
20260504190935 77 294 0.9 1.7 0.00 0.00 0.00 38 1014.2
20260504190431 78 328 0.0 0.9 0.00 0.00 0.00 46 1014.0
20260504185928 78 288 0.0 0.0 0.00 0.00 0.00 44 1014.2
20260504185425 78 346 0.0 0.9 0.00 0.00 0.00 40 1014.3
20260504184921 77 351 0.0 0.0 0.00 0.00 0.00 41 1014.2
20260504184417 76 307 0.0 0.9 0.00 0.00 0.00 49 1014.4
20260504183913 77 327 1.7 2.6 0.00 0.00 0.00 42 1014.2
20260504183411 77 340 0.9 1.7 0.00 0.00 0.00 44 1014.0
20260504182908 76 2 0.0 0.9 0.00 0.00 0.00 44 1014.4
20260504182405 75 328 0.0 0.0 0.00 0.00 0.00 46 1014.1
20260504181902 75 281 0.9 0.9 0.00 0.00 0.00 50 1014.2
20260504181359 74 87 0.9 0.9 0.00 0.00 0.00 45 1014.2
20260504180858 74 21 0.0 0.0 0.00 0.00 0.00 47 1014.4
20260504180356 74 271 0.9 2.6 0.00 0.00 0.00 45 1014.4
20260504175854 74 279 0.0 1.7 0.00 0.00 0.00 45 1014.3
20260504175350 74 328 0.0 0.0 0.00 0.00 0.00 48 1014.4
20260504174849 73 25 0.9 1.7 0.00 0.00 0.00 52 1014.3
20260504174346 73 2 0.0 0.9 0.00 0.00 0.00 53 1014.1
20260504173843 73 347 0.0 0.0 0.00 0.00 0.00 52 1014.1
20260504173340 72 333 0.0 0.0 0.00 0.00 0.00 56 1014.3
20260504172836 72 300 0.0 0.9 0.00 0.00 0.00 53 1014.2
20260504172333 71 13 0.0 0.9 0.00 0.00 0.00 58 1014.3
20260504171829 70 308 0.0 0.9 0.00 0.00 0.00 63 1014.3
20260504171326 70 23 0.0 0.0 0.00 0.00 0.00 61 1014.2
20260504170824 70 33 0.0 0.0 0.00 0.00 0.00 62 1014.2
20260504170320 69 34 0.0 0.9 0.00 0.00 0.00 60 1014.3
20260504160238 65 21 0.0 0.0 0.00 0.00 0.00 68 1014.1
20260504150704 57 19 0.0 0.0 0.00 0.00 0.00 89 1013.8
20260504150201 56 19 0.0 0.0 0.00 0.00 0.00 91 1013.9
20260504141130 50 348 0.0 0.0 0.00 0.00 0.00 99 1013.4
20260504140627 50 349 0.0 0.0 0.00 0.00 0.00 99 1013.4
20260504140122 50 349 0.0 0.0 0.00 0.00 0.00 99 1013.3
20260504130550 48 352 0.0 0.0 0.00 0.00 0.00 99 1013.3
20260504110438 50 351 0.0 0.0 0.00 0.00 0.00 98 1012.8
20260504100401 51 351 0.0 0.0 0.00 0.00 0.00 97 1012.8
20260504081754 52 349 0.0 0.0 0.00 0.00 0.00 94 1012.6
20260504081250 52 349 0.0 0.0 0.00 0.00 0.00 94 1012.9
20260504080747 53 349 0.0 0.0 0.00 0.00 0.00 94 1013.0
20260504080243 53 349 0.0 0.0 0.00 0.00 0.00 94 1012.8
20260504070211 55 347 0.0 0.0 0.00 0.00 0.00 90 1013.0
20260504060131 58 345 0.0 0.0 0.00 0.00 0.00 85 1012.9